Year,Month,Day,Hour,Minute,Value (Times are PST for temperature in C)
2009,07,02,00,00,11.60
2009,07,02,00,01,11.60
2009,07,02,00,02,11.60
2009,07,02,00,03,11.60
2009,07,02,00,04,11.60
2009,07,02,00,05,11.60
2009,07,02,00,06,11.60
2009,07,02,00,07,11.60
2009,07,02,00,08,11.60
2009,07,02,00,09,11.60
2009,07,02,00,10,11.60
2009,07,02,00,11,11.60
2009,07,02,00,12,11.60
2009,07,02,00,13,11.60
2009,07,02,00,14,11.60
2009,07,02,00,15,11.60
2009,07,02,00,16,11.60
2009,07,02,00,17,11.60
2009,07,02,00,18,11.60
2009,07,02,00,19,11.60
2009,07,02,00,20,11.60
2009,07,02,00,21,11.60
2009,07,02,00,22,11.60
2009,07,02,00,23,11.60
2009,07,02,00,24,11.60
2009,07,02,00,25,11.60
2009,07,02,00,26,11.60
2009,07,02,00,27,11.60
2009,07,02,00,28,11.60
2009,07,02,00,29,11.60
2009,07,02,00,30,11.60
2009,07,02,00,31,11.60
2009,07,02,00,32,11.60
2009,07,02,00,33,11.60
2009,07,02,00,34,11.60
2009,07,02,00,35,11.60
2009,07,02,00,36,11.50
2009,07,02,00,37,11.40
2009,07,02,00,38,11.40
2009,07,02,00,39,11.40
2009,07,02,00,40,11.40
2009,07,02,00,41,11.40
2009,07,02,00,42,11.40
2009,07,02,00,43,11.40
2009,07,02,00,44,11.40
2009,07,02,00,45,11.40
2009,07,02,00,46,11.40
2009,07,02,00,47,11.40
2009,07,02,00,48,11.40
2009,07,02,00,49,11.40
2009,07,02,00,50,11.40
2009,07,02,00,51,11.40
2009,07,02,00,52,11.40
2009,07,02,00,53,11.40
2009,07,02,00,54,11.40
2009,07,02,00,55,11.40
2009,07,02,00,56,11.40
2009,07,02,00,57,11.40
2009,07,02,00,58,11.40
2009,07,02,00,59,11.40
2009,07,02,01,00,11.40
2009,07,02,01,01,11.30
2009,07,02,01,02,11.30
2009,07,02,01,03,11.30
2009,07,02,01,04,11.30
2009,07,02,01,05,11.30
2009,07,02,01,06,11.20
2009,07,02,01,07,11.20
2009,07,02,01,08,11.20
2009,07,02,01,09,11.20
2009,07,02,01,10,11.20
2009,07,02,01,11,11.10
2009,07,02,01,12,11.10
2009,07,02,01,13,11.10
2009,07,02,01,14,11.10
2009,07,02,01,15,11.10
2009,07,02,01,16,11.10
2009,07,02,01,17,11.10
2009,07,02,01,18,11.10
2009,07,02,01,19,10.90
2009,07,02,01,20,10.90
2009,07,02,01,21,10.90
2009,07,02,01,22,10.90
2009,07,02,01,23,10.90
2009,07,02,01,24,10.90
2009,07,02,01,25,10.90
2009,07,02,01,26,10.90
2009,07,02,01,27,10.90
2009,07,02,01,28,10.90
2009,07,02,01,29,10.90
2009,07,02,01,30,10.90
2009,07,02,01,31,10.90
2009,07,02,01,32,10.90
2009,07,02,01,33,10.90
2009,07,02,01,34,10.90
2009,07,02,01,35,10.90
2009,07,02,01,36,10.90
2009,07,02,01,37,10.90
2009,07,02,01,38,10.90
2009,07,02,01,39,10.90
2009,07,02,01,40,11.00
2009,07,02,01,41,11.10
2009,07,02,01,42,11.10
2009,07,02,01,43,11.10
2009,07,02,01,44,11.10
2009,07,02,01,45,11.10
2009,07,02,01,46,11.10
2009,07,02,01,47,11.10
2009,07,02,01,48,11.10
2009,07,02,01,49,11.10
2009,07,02,01,50,11.10
2009,07,02,01,51,11.10
2009,07,02,01,52,11.10
2009,07,02,01,53,11.10
2009,07,02,01,54,11.10
2009,07,02,01,55,11.10
2009,07,02,01,56,11.10
2009,07,02,01,57,11.10
2009,07,02,01,58,11.10
2009,07,02,01,59,11.10
2009,07,02,02,00,11.10
2009,07,02,02,01,11.10
2009,07,02,02,02,11.10
2009,07,02,02,03,11.10
2009,07,02,02,04,11.10
2009,07,02,02,05,11.10
2009,07,02,02,06,11.10
2009,07,02,02,07,11.10
2009,07,02,02,08,11.00
2009,07,02,02,09,10.90
2009,07,02,02,10,10.90
2009,07,02,02,11,10.90
2009,07,02,02,12,10.90
2009,07,02,02,13,10.90
2009,07,02,02,14,10.90
2009,07,02,02,15,10.90
2009,07,02,02,16,10.90
2009,07,02,02,17,10.90
2009,07,02,02,18,10.90
2009,07,02,02,19,10.80
2009,07,02,02,20,10.80
2009,07,02,02,21,10.80
2009,07,02,02,22,10.80
2009,07,02,02,23,10.80
2009,07,02,02,24,10.80
2009,07,02,02,25,10.80
2009,07,02,02,26,10.70
2009,07,02,02,27,10.70
2009,07,02,02,28,10.70
2009,07,02,02,29,10.70
2009,07,02,02,30,10.60
2009,07,02,02,31,10.60
2009,07,02,02,32,10.60
2009,07,02,02,33,10.60
2009,07,02,02,34,10.60
2009,07,02,02,35,10.60
2009,07,02,02,36,10.60
2009,07,02,02,37,10.60
2009,07,02,02,38,10.60
2009,07,02,02,39,10.60
2009,07,02,02,40,10.60
2009,07,02,02,41,10.60
2009,07,02,02,42,10.60
2009,07,02,02,43,10.60
2009,07,02,02,44,10.60
2009,07,02,02,45,10.60
2009,07,02,02,46,10.60
2009,07,02,02,47,10.60
2009,07,02,02,48,10.60
2009,07,02,02,49,10.60
2009,07,02,02,50,10.60
2009,07,02,02,51,10.60
2009,07,02,02,52,10.60
2009,07,02,02,53,10.60
2009,07,02,02,54,10.60
2009,07,02,02,55,10.60
2009,07,02,02,56,10.60
2009,07,02,02,57,10.60
2009,07,02,02,58,10.60
2009,07,02,02,59,10.60
2009,07,02,03,00,10.60
2009,07,02,03,01,10.60
2009,07,02,03,02,10.60
2009,07,02,03,03,10.60
2009,07,02,03,04,10.60
2009,07,02,03,05,10.60
2009,07,02,03,06,10.50
2009,07,02,03,07,10.40
2009,07,02,03,08,10.40
2009,07,02,03,09,10.40
2009,07,02,03,10,10.40
2009,07,02,03,11,10.40
2009,07,02,03,12,10.40
2009,07,02,03,13,10.30
2009,07,02,03,14,10.30
2009,07,02,03,15,10.30
2009,07,02,03,16,10.30
2009,07,02,03,17,10.20
2009,07,02,03,18,10.20
2009,07,02,03,19,10.20
2009,07,02,03,20,10.20
2009,07,02,03,21,10.20
2009,07,02,03,22,10.20
2009,07,02,03,23,10.20
2009,07,02,03,24,10.20
2009,07,02,03,25,10.10
2009,07,02,03,26,10.10
2009,07,02,03,27,10.10
2009,07,02,03,28,10.10
2009,07,02,03,29,10.10
2009,07,02,03,30,10.10
2009,07,02,03,31,10.10
2009,07,02,03,32,10.10
2009,07,02,03,33,10.10
2009,07,02,03,34,10.10
2009,07,02,03,35,10.00
2009,07,02,03,36,9.90
2009,07,02,03,37,9.90
2009,07,02,03,38,9.90
2009,07,02,03,39,9.90
2009,07,02,03,40,9.90
2009,07,02,03,41,9.90
2009,07,02,03,42,9.90
2009,07,02,03,43,9.90
2009,07,02,03,44,9.90
2009,07,02,03,45,9.90
2009,07,02,03,46,9.90
2009,07,02,03,47,9.90
2009,07,02,03,48,9.90
2009,07,02,03,49,9.90
2009,07,02,03,50,9.90
2009,07,02,03,51,9.80
2009,07,02,03,52,9.80
2009,07,02,03,53,9.80
2009,07,02,03,54,9.80
2009,07,02,03,55,9.80
2009,07,02,03,56,9.80
2009,07,02,03,57,9.70
2009,07,02,03,58,9.70
2009,07,02,03,59,9.70
2009,07,02,04,00,9.70
2009,07,02,04,01,9.70
2009,07,02,04,02,9.70
2009,07,02,04,03,9.70
2009,07,02,04,04,9.70
2009,07,02,04,05,9.70
2009,07,02,04,06,9.70
2009,07,02,04,07,9.70
2009,07,02,04,08,9.70
2009,07,02,04,09,9.70
2009,07,02,04,10,9.70
2009,07,02,04,11,9.70
2009,07,02,04,12,9.80
2009,07,02,04,13,9.80
2009,07,02,04,14,9.80
2009,07,02,04,15,9.80
2009,07,02,04,16,9.80
2009,07,02,04,17,9.80
2009,07,02,04,18,9.80
2009,07,02,04,19,9.80
2009,07,02,04,20,9.80
2009,07,02,04,21,9.70
2009,07,02,04,22,9.70
2009,07,02,04,23,9.70
2009,07,02,04,24,9.70
2009,07,02,04,25,9.70
2009,07,02,04,26,9.70
2009,07,02,04,27,9.70
2009,07,02,04,28,9.70
2009,07,02,04,29,9.70
2009,07,02,04,30,9.70
2009,07,02,04,31,9.70
2009,07,02,04,32,9.70
2009,07,02,04,33,9.70
2009,07,02,04,34,9.80
2009,07,02,04,35,9.90
2009,07,02,04,36,9.90
2009,07,02,04,37,10.10
2009,07,02,04,38,10.10
2009,07,02,04,39,10.10
2009,07,02,04,40,10.20
2009,07,02,04,41,10.20
2009,07,02,04,42,10.30
2009,07,02,04,43,10.30
2009,07,02,04,44,10.40
2009,07,02,04,45,10.50
2009,07,02,04,46,10.70
2009,07,02,04,47,10.90
2009,07,02,04,48,11.00
2009,07,02,04,49,11.10
2009,07,02,04,50,11.20
2009,07,02,04,51,11.40
2009,07,02,04,52,11.50
2009,07,02,04,53,11.60
2009,07,02,04,54,11.70
2009,07,02,04,55,11.80
2009,07,02,04,56,12.00
2009,07,02,04,57,12.10
2009,07,02,04,58,12.20
2009,07,02,04,59,12.40
2009,07,02,05,00,12.50
2009,07,02,05,01,12.60
2009,07,02,05,02,12.80
2009,07,02,05,03,12.80
2009,07,02,05,04,12.90
2009,07,02,05,05,13.00
2009,07,02,05,06,13.00
2009,07,02,05,07,13.00
2009,07,02,05,08,13.00
2009,07,02,05,09,13.00
2009,07,02,05,10,13.00
2009,07,02,05,11,12.80
2009,07,02,05,12,12.60
2009,07,02,05,13,12.30
2009,07,02,05,14,12.00
2009,07,02,05,15,11.90
2009,07,02,05,16,11.70
2009,07,02,05,17,11.50
2009,07,02,05,18,11.40
2009,07,02,05,19,11.30
2009,07,02,05,20,11.30
2009,07,02,05,21,11.20
2009,07,02,05,22,11.20
2009,07,02,05,23,11.10
2009,07,02,05,24,11.10
2009,07,02,05,25,11.10
2009,07,02,05,26,11.00
2009,07,02,05,27,10.90
2009,07,02,05,28,10.90
2009,07,02,05,29,10.90
2009,07,02,05,30,10.80
2009,07,02,05,31,10.70
2009,07,02,05,32,10.70
2009,07,02,05,33,10.60
2009,07,02,05,34,10.60
2009,07,02,05,35,10.60
2009,07,02,05,36,10.50
2009,07,02,05,37,10.40
2009,07,02,05,38,10.40
2009,07,02,05,39,10.40
2009,07,02,05,40,10.30
2009,07,02,05,41,10.30
2009,07,02,05,42,10.20
2009,07,02,05,43,10.20
2009,07,02,05,44,10.10
2009,07,02,05,45,10.10
2009,07,02,05,46,10.10
2009,07,02,05,47,10.10
2009,07,02,05,48,10.00
2009,07,02,05,49,9.90
2009,07,02,05,50,9.90
2009,07,02,05,51,9.90
2009,07,02,05,52,9.90
2009,07,02,05,53,9.90
2009,07,02,05,54,9.90
2009,07,02,05,55,9.90
2009,07,02,05,56,9.80
2009,07,02,05,57,9.80
2009,07,02,05,58,9.80
2009,07,02,05,59,9.80
2009,07,02,06,00,9.90
2009,07,02,06,01,9.90
2009,07,02,06,02,10.10
2009,07,02,06,03,10.20
2009,07,02,06,04,10.40
2009,07,02,06,05,10.60
2009,07,02,06,06,10.80
2009,07,02,06,07,11.00
2009,07,02,06,08,11.20
2009,07,02,06,09,11.40
2009,07,02,06,10,11.50
2009,07,02,06,11,11.70
2009,07,02,06,12,11.80
2009,07,02,06,13,11.80
2009,07,02,06,14,11.80
2009,07,02,06,15,11.80
2009,07,02,06,16,11.80
2009,07,02,06,17,11.80
2009,07,02,06,18,11.80
2009,07,02,06,19,11.80
2009,07,02,06,20,11.80
2009,07,02,06,21,11.80
2009,07,02,06,22,11.80
2009,07,02,06,23,11.80
2009,07,02,06,24,11.80
2009,07,02,06,25,11.80
2009,07,02,06,26,11.80
2009,07,02,06,27,11.80
2009,07,02,06,28,11.80
2009,07,02,06,29,11.90
2009,07,02,06,30,11.90
2009,07,02,06,31,11.90
2009,07,02,06,32,12.00
2009,07,02,06,33,12.00
2009,07,02,06,34,12.10
2009,07,02,06,35,12.10
2009,07,02,06,36,12.10
2009,07,02,06,37,12.20
2009,07,02,06,38,12.20
2009,07,02,06,39,12.20
2009,07,02,06,40,12.20
2009,07,02,06,41,12.20
2009,07,02,06,42,12.20
2009,07,02,06,43,12.20
2009,07,02,06,44,12.30
2009,07,02,06,45,12.30
2009,07,02,06,46,12.30
2009,07,02,06,47,12.40
2009,07,02,06,48,12.50
2009,07,02,06,49,12.50
2009,07,02,06,50,12.60
2009,07,02,06,51,12.70
2009,07,02,06,52,12.80
2009,07,02,06,53,12.80
2009,07,02,06,54,13.00
2009,07,02,06,55,13.00
2009,07,02,06,56,13.20
2009,07,02,06,57,13.30
2009,07,02,06,58,13.40
2009,07,02,06,59,13.50
2009,07,02,07,00,13.60
2009,07,02,07,01,13.70
2009,07,02,07,02,13.80
2009,07,02,07,03,13.90
2009,07,02,07,04,14.00
2009,07,02,07,05,14.10
2009,07,02,07,06,14.20
2009,07,02,07,07,14.30
2009,07,02,07,08,14.30
2009,07,02,07,09,14.40
2009,07,02,07,10,14.50
2009,07,02,07,11,14.60
2009,07,02,07,12,14.70
2009,07,02,07,13,14.80
2009,07,02,07,14,14.90
2009,07,02,07,15,15.00
2009,07,02,07,16,15.10
2009,07,02,07,17,15.10
2009,07,02,07,18,15.20
2009,07,02,07,19,15.30
2009,07,02,07,20,15.30
2009,07,02,07,21,15.40
2009,07,02,07,22,15.40
2009,07,02,07,23,15.50
2009,07,02,07,24,15.50
2009,07,02,07,25,15.50
2009,07,02,07,26,15.60
2009,07,02,07,27,15.60
2009,07,02,07,28,15.70
2009,07,02,07,29,15.70
2009,07,02,07,30,15.80
2009,07,02,07,31,15.80
2009,07,02,07,32,15.80
2009,07,02,07,33,15.90
2009,07,02,07,34,15.90
2009,07,02,07,35,15.90
2009,07,02,07,36,16.10
2009,07,02,07,37,16.10
2009,07,02,07,38,16.10
2009,07,02,07,39,16.10
2009,07,02,07,40,16.10
2009,07,02,07,41,16.10
2009,07,02,07,42,16.10
2009,07,02,07,43,16.20
2009,07,02,07,44,16.20
2009,07,02,07,45,16.30
2009,07,02,07,46,16.30
2009,07,02,07,47,16.40
2009,07,02,07,48,16.40
2009,07,02,07,49,16.50
2009,07,02,07,50,16.60
2009,07,02,07,51,16.60
2009,07,02,07,52,16.70
2009,07,02,07,53,16.70
2009,07,02,07,54,16.70
2009,07,02,07,55,16.80
2009,07,02,07,56,16.80
2009,07,02,07,57,16.90
2009,07,02,07,58,16.90
2009,07,02,07,59,17.00
2009,07,02,08,00,17.00
2009,07,02,08,01,17.10
2009,07,02,08,02,17.10
2009,07,02,08,03,17.20
2009,07,02,08,04,17.20
2009,07,02,08,05,17.30
2009,07,02,08,06,17.30
2009,07,02,08,07,17.30
2009,07,02,08,08,17.30
2009,07,02,08,09,17.40
2009,07,02,08,10,17.50
2009,07,02,08,11,17.60
2009,07,02,08,12,17.70
2009,07,02,08,13,17.80
2009,07,02,08,14,17.80
2009,07,02,08,15,17.90
2009,07,02,08,16,18.00
2009,07,02,08,17,18.10
2009,07,02,08,18,18.10
2009,07,02,08,19,18.10
2009,07,02,08,20,18.10
2009,07,02,08,21,18.20
2009,07,02,08,22,18.20
2009,07,02,08,23,18.20
2009,07,02,08,24,18.30
2009,07,02,08,25,18.30
2009,07,02,08,26,18.40
2009,07,02,08,27,18.40
2009,07,02,08,28,18.50
2009,07,02,08,29,18.50
2009,07,02,08,30,18.40
2009,07,02,08,31,18.40
2009,07,02,08,32,18.40
2009,07,02,08,33,18.50
2009,07,02,08,34,18.50
2009,07,02,08,35,18.60
2009,07,02,08,36,18.60
2009,07,02,08,37,18.60
2009,07,02,08,38,18.60
2009,07,02,08,39,18.60
2009,07,02,08,40,18.60
2009,07,02,08,41,18.60
2009,07,02,08,42,18.70
2009,07,02,08,43,18.90
2009,07,02,08,44,18.90
2009,07,02,08,45,19.00
2009,07,02,08,46,19.10
2009,07,02,08,47,19.10
2009,07,02,08,48,19.00
2009,07,02,08,49,18.90
2009,07,02,08,50,18.90
2009,07,02,08,51,18.90
2009,07,02,08,52,18.90
2009,07,02,08,53,18.90
2009,07,02,08,54,18.90
2009,07,02,08,55,18.90
2009,07,02,08,56,19.00
2009,07,02,08,57,19.10
2009,07,02,08,58,19.10
2009,07,02,08,59,19.10
2009,07,02,09,00,19.20
2009,07,02,09,01,19.30
2009,07,02,09,02,19.40
2009,07,02,09,03,19.60
2009,07,02,09,04,19.70
2009,07,02,09,05,19.80
2009,07,02,09,06,19.80
2009,07,02,09,07,19.90
2009,07,02,09,08,19.90
2009,07,02,09,09,19.90
2009,07,02,09,10,19.80
2009,07,02,09,11,19.80
2009,07,02,09,12,19.80
2009,07,02,09,13,19.90
2009,07,02,09,14,19.90
2009,07,02,09,15,20.10
2009,07,02,09,16,20.10
2009,07,02,09,17,20.20
2009,07,02,09,18,20.20
2009,07,02,09,19,20.00
2009,07,02,09,20,19.90
2009,07,02,09,21,19.70
2009,07,02,09,22,19.40
2009,07,02,09,23,19.20
2009,07,02,09,24,19.00
2009,07,02,09,25,18.90
2009,07,02,09,26,18.80
2009,07,02,09,27,18.80
2009,07,02,09,28,18.70
2009,07,02,09,29,18.70
2009,07,02,09,30,18.70
2009,07,02,09,31,18.80
2009,07,02,09,32,18.80
2009,07,02,09,33,18.80
2009,07,02,09,34,18.90
2009,07,02,09,35,18.90
2009,07,02,09,36,18.80
2009,07,02,09,37,18.80
2009,07,02,09,38,18.90
2009,07,02,09,39,19.10
2009,07,02,09,40,19.10
2009,07,02,09,41,19.20
2009,07,02,09,42,19.20
2009,07,02,09,43,19.20
2009,07,02,09,44,19.10
2009,07,02,09,45,19.20
2009,07,02,09,46,19.10
2009,07,02,09,47,19.20
2009,07,02,09,48,19.20
2009,07,02,09,49,19.20
2009,07,02,09,50,19.30
2009,07,02,09,51,19.30
2009,07,02,09,52,19.30
2009,07,02,09,53,19.30
2009,07,02,09,54,19.40
2009,07,02,09,55,19.50
2009,07,02,09,56,19.60
2009,07,02,09,57,19.60
2009,07,02,09,58,19.70
2009,07,02,09,59,19.80
2009,07,02,10,00,19.90
2009,07,02,10,01,19.90
2009,07,02,10,02,19.90
2009,07,02,10,03,19.90
2009,07,02,10,04,19.90
2009,07,02,10,05,19.90
2009,07,02,10,06,19.90
2009,07,02,10,07,19.90
2009,07,02,10,08,19.90
2009,07,02,10,09,19.90
2009,07,02,10,10,19.90
2009,07,02,10,11,19.90
2009,07,02,10,12,19.90
2009,07,02,10,13,19.90
2009,07,02,10,14,19.90
2009,07,02,10,15,20.00
2009,07,02,10,16,20.10
2009,07,02,10,17,20.20
2009,07,02,10,18,20.40
2009,07,02,10,19,20.40
2009,07,02,10,20,20.40
2009,07,02,10,21,20.40
2009,07,02,10,22,20.50
2009,07,02,10,23,20.50
2009,07,02,10,24,20.50
2009,07,02,10,25,20.40
2009,07,02,10,26,20.30
2009,07,02,10,27,20.30
2009,07,02,10,28,20.30
2009,07,02,10,29,20.40
2009,07,02,10,30,20.50
2009,07,02,10,31,20.60
2009,07,02,10,32,20.60
2009,07,02,10,33,20.50
2009,07,02,10,34,20.40
2009,07,02,10,35,20.40
2009,07,02,10,36,20.30
2009,07,02,10,37,20.30
2009,07,02,10,38,20.30
2009,07,02,10,39,20.20
2009,07,02,10,40,20.20
2009,07,02,10,41,20.20
2009,07,02,10,42,20.10
2009,07,02,10,43,20.00
2009,07,02,10,44,19.90
2009,07,02,10,45,19.70
2009,07,02,10,46,19.70
2009,07,02,10,47,19.60
2009,07,02,10,48,19.50
2009,07,02,10,49,19.40
2009,07,02,10,50,19.30
2009,07,02,10,51,19.30
2009,07,02,10,52,19.20
2009,07,02,10,53,19.10
2009,07,02,10,54,19.10
2009,07,02,10,55,19.30
2009,07,02,10,56,19.40
2009,07,02,10,57,19.40
2009,07,02,10,58,19.50
2009,07,02,10,59,19.50
2009,07,02,11,00,19.50
2009,07,02,11,01,19.50
2009,07,02,11,02,19.60
2009,07,02,11,03,19.50
2009,07,02,11,04,19.60
2009,07,02,11,05,19.60
2009,07,02,11,06,19.60
2009,07,02,11,07,19.60
2009,07,02,11,08,19.60
2009,07,02,11,09,19.60
2009,07,02,11,10,19.60
2009,07,02,11,11,19.40
2009,07,02,11,12,19.40
2009,07,02,11,13,19.40
2009,07,02,11,14,19.60
2009,07,02,11,15,19.70
2009,07,02,11,16,19.90
2009,07,02,11,17,20.00
2009,07,02,11,18,20.20
2009,07,02,11,19,20.30
2009,07,02,11,20,20.40
2009,07,02,11,21,20.50
2009,07,02,11,22,20.50
2009,07,02,11,23,20.70
2009,07,02,11,24,20.80
2009,07,02,11,25,20.90
2009,07,02,11,26,21.00
2009,07,02,11,27,21.00
2009,07,02,11,28,21.00
2009,07,02,11,29,21.10
2009,07,02,11,30,21.10
2009,07,02,11,31,21.00
2009,07,02,11,32,20.80
2009,07,02,11,33,20.70
2009,07,02,11,34,20.70
2009,07,02,11,35,20.60
2009,07,02,11,36,20.60
2009,07,02,11,37,20.50
2009,07,02,11,38,20.40
2009,07,02,11,39,20.50
2009,07,02,11,40,20.50
2009,07,02,11,41,20.50
2009,07,02,11,42,20.60
2009,07,02,11,43,20.60
2009,07,02,11,44,20.60
2009,07,02,11,45,20.50
2009,07,02,11,46,20.50
2009,07,02,11,47,20.60
2009,07,02,11,48,20.60
2009,07,02,11,49,20.60
2009,07,02,11,50,20.50
2009,07,02,11,51,20.50
2009,07,02,11,52,20.40
2009,07,02,11,53,20.50
2009,07,02,11,54,20.60
2009,07,02,11,55,20.70
2009,07,02,11,56,20.70
2009,07,02,11,57,20.50
2009,07,02,11,58,20.40
2009,07,02,11,59,20.20
2009,07,02,12,00,20.20
2009,07,02,12,01,20.10
2009,07,02,12,02,20.10
2009,07,02,12,03,20.00
2009,07,02,12,04,19.90
2009,07,02,12,05,19.90
2009,07,02,12,06,19.90
2009,07,02,12,07,19.80
2009,07,02,12,08,19.80
2009,07,02,12,09,19.90
2009,07,02,12,10,19.90
2009,07,02,12,11,19.90
2009,07,02,12,12,19.90
2009,07,02,12,13,19.80
2009,07,02,12,14,19.80
2009,07,02,12,15,19.90
2009,07,02,12,16,20.00
2009,07,02,12,17,20.10
2009,07,02,12,18,20.10
2009,07,02,12,19,20.10
2009,07,02,12,20,20.20
2009,07,02,12,21,20.40
2009,07,02,12,22,20.50
2009,07,02,12,23,20.40
2009,07,02,12,24,20.50
2009,07,02,12,25,20.60
2009,07,02,12,26,20.60
2009,07,02,12,27,20.70
2009,07,02,12,28,20.80
2009,07,02,12,29,20.80
2009,07,02,12,30,20.90
2009,07,02,12,31,20.90
2009,07,02,12,32,20.80
2009,07,02,12,33,20.90
2009,07,02,12,34,20.90
2009,07,02,12,35,21.00
2009,07,02,12,36,21.00
2009,07,02,12,37,20.80
2009,07,02,12,38,20.80
2009,07,02,12,39,20.80
2009,07,02,12,40,20.80
2009,07,02,12,41,20.60
2009,07,02,12,42,20.50
2009,07,02,12,43,20.40
2009,07,02,12,44,20.30
2009,07,02,12,45,20.20
2009,07,02,12,46,20.30
2009,07,02,12,47,20.30
2009,07,02,12,48,20.40
2009,07,02,12,49,20.40
2009,07,02,12,50,20.40
2009,07,02,12,51,20.30
2009,07,02,12,52,20.20
2009,07,02,12,53,20.20
2009,07,02,12,54,20.20
2009,07,02,12,55,20.40
2009,07,02,12,56,20.50
2009,07,02,12,57,20.40
2009,07,02,12,58,20.30
2009,07,02,12,59,20.20
2009,07,02,13,00,20.30
2009,07,02,13,01,20.30
2009,07,02,13,02,20.30
2009,07,02,13,03,20.30
2009,07,02,13,04,20.20
2009,07,02,13,05,20.30
2009,07,02,13,06,20.30
2009,07,02,13,07,20.40
2009,07,02,13,08,20.40
2009,07,02,13,09,20.50
2009,07,02,13,10,20.50
2009,07,02,13,11,20.50
2009,07,02,13,12,20.70
2009,07,02,13,13,20.70
2009,07,02,13,14,20.70
2009,07,02,13,15,20.60
2009,07,02,13,16,20.50
2009,07,02,13,17,20.50
2009,07,02,13,18,20.50
2009,07,02,13,19,20.50
2009,07,02,13,20,20.50
2009,07,02,13,21,20.60
2009,07,02,13,22,20.60
2009,07,02,13,23,20.80
2009,07,02,13,24,20.80
2009,07,02,13,25,20.80
2009,07,02,13,26,20.70
2009,07,02,13,27,20.60
2009,07,02,13,28,20.50
2009,07,02,13,29,20.40
2009,07,02,13,30,20.40
2009,07,02,13,31,20.40
2009,07,02,13,32,20.40
2009,07,02,13,33,20.20
2009,07,02,13,34,20.20
2009,07,02,13,35,20.20
2009,07,02,13,36,20.30
2009,07,02,13,37,20.20
2009,07,02,13,38,20.00
2009,07,02,13,39,19.90
2009,07,02,13,40,19.80
2009,07,02,13,41,19.80
2009,07,02,13,42,19.80
2009,07,02,13,43,19.70
2009,07,02,13,44,19.60
2009,07,02,13,45,19.50
2009,07,02,13,46,19.40
2009,07,02,13,47,19.30
2009,07,02,13,48,19.20
2009,07,02,13,49,19.10
2009,07,02,13,50,19.10
2009,07,02,13,51,19.10
2009,07,02,13,52,19.10
2009,07,02,13,53,19.10
2009,07,02,13,54,19.10
2009,07,02,13,55,19.00
2009,07,02,13,56,19.10
2009,07,02,13,57,19.10
2009,07,02,13,58,19.10
2009,07,02,13,59,19.10
2009,07,02,14,00,19.10
2009,07,02,14,01,19.20
2009,07,02,14,02,19.20
2009,07,02,14,03,19.10
2009,07,02,14,04,19.10
2009,07,02,14,05,19.30
2009,07,02,14,06,19.30
2009,07,02,14,07,19.40
2009,07,02,14,08,19.40
2009,07,02,14,09,19.40
2009,07,02,14,10,19.40
2009,07,02,14,11,19.30
2009,07,02,14,12,19.30
2009,07,02,14,13,19.20
2009,07,02,14,14,19.00
2009,07,02,14,15,18.90
2009,07,02,14,16,18.90
2009,07,02,14,17,18.70
2009,07,02,14,18,18.70
2009,07,02,14,19,18.70
2009,07,02,14,20,18.70
2009,07,02,14,21,18.80
2009,07,02,14,22,18.80
2009,07,02,14,23,18.90
2009,07,02,14,24,18.90
2009,07,02,14,25,18.90
2009,07,02,14,26,18.90
2009,07,02,14,27,18.90
2009,07,02,14,28,18.90
2009,07,02,14,29,18.90
2009,07,02,14,30,18.90
2009,07,02,14,31,19.00
2009,07,02,14,32,19.00
2009,07,02,14,33,19.20
2009,07,02,14,34,19.30
2009,07,02,14,35,19.30
2009,07,02,14,36,19.30
2009,07,02,14,37,19.30
2009,07,02,14,38,19.20
2009,07,02,14,39,19.20
2009,07,02,14,40,19.10
2009,07,02,14,41,19.20
2009,07,02,14,42,19.20
2009,07,02,14,43,19.20
2009,07,02,14,44,19.20
2009,07,02,14,45,19.20
2009,07,02,14,46,19.30
2009,07,02,14,47,19.30
2009,07,02,14,48,19.50
2009,07,02,14,49,19.60
2009,07,02,14,50,19.60
2009,07,02,14,51,19.40
2009,07,02,14,52,19.30
2009,07,02,14,53,19.20
2009,07,02,14,54,19.10
2009,07,02,14,55,19.20
2009,07,02,14,56,19.30
2009,07,02,14,57,19.50
2009,07,02,14,58,19.60
2009,07,02,14,59,19.70
2009,07,02,15,00,19.80
2009,07,02,15,01,19.80
2009,07,02,15,02,19.80
2009,07,02,15,03,19.70
2009,07,02,15,04,19.70
2009,07,02,15,05,19.90
2009,07,02,15,06,20.00
2009,07,02,15,07,20.10
2009,07,02,15,08,20.10
2009,07,02,15,09,20.10
2009,07,02,15,10,20.00
2009,07,02,15,11,19.90
2009,07,02,15,12,20.00
2009,07,02,15,13,20.10
2009,07,02,15,14,20.10
2009,07,02,15,15,20.00
2009,07,02,15,16,19.90
2009,07,02,15,17,19.90
2009,07,02,15,18,19.90
2009,07,02,15,19,19.80
2009,07,02,15,20,19.80
2009,07,02,15,21,19.80
2009,07,02,15,22,19.80
2009,07,02,15,23,19.80
2009,07,02,15,24,19.70
2009,07,02,15,25,19.60
2009,07,02,15,26,19.60
2009,07,02,15,27,19.60
2009,07,02,15,28,19.70
2009,07,02,15,29,19.80
2009,07,02,15,30,19.80
2009,07,02,15,31,19.80
2009,07,02,15,32,19.80
2009,07,02,15,33,19.80
2009,07,02,15,34,19.90
2009,07,02,15,35,19.90
2009,07,02,15,36,19.90
2009,07,02,15,37,20.00
2009,07,02,15,38,20.20
2009,07,02,15,39,20.20
2009,07,02,15,40,20.10
2009,07,02,15,41,20.20
2009,07,02,15,42,20.20
2009,07,02,15,43,20.20
2009,07,02,15,44,20.30
2009,07,02,15,45,20.50
2009,07,02,15,46,20.60
2009,07,02,15,47,20.70
2009,07,02,15,48,20.80
2009,07,02,15,49,20.90
2009,07,02,15,50,20.90
2009,07,02,15,51,21.00
2009,07,02,15,52,21.20
2009,07,02,15,53,21.30
2009,07,02,15,54,21.30
2009,07,02,15,55,21.30
2009,07,02,15,56,21.30
2009,07,02,15,57,21.30
2009,07,02,15,58,21.10
2009,07,02,15,59,21.00
2009,07,02,16,00,21.00
2009,07,02,16,01,21.00
2009,07,02,16,02,21.10
2009,07,02,16,03,21.10
2009,07,02,16,04,21.20
2009,07,02,16,05,21.30
2009,07,02,16,06,21.30
2009,07,02,16,07,21.30
2009,07,02,16,08,21.40
2009,07,02,16,09,21.60
2009,07,02,16,10,21.60
2009,07,02,16,11,21.80
2009,07,02,16,12,22.00
2009,07,02,16,13,22.10
2009,07,02,16,14,22.30
2009,07,02,16,15,22.60
2009,07,02,16,16,22.70
2009,07,02,16,17,22.80
2009,07,02,16,18,22.90
2009,07,02,16,19,22.90
2009,07,02,16,20,22.90
2009,07,02,16,21,23.00
2009,07,02,16,22,23.10
2009,07,02,16,23,23.10
2009,07,02,16,24,23.10
2009,07,02,16,25,23.20
2009,07,02,16,26,23.20
2009,07,02,16,27,23.20
2009,07,02,16,28,23.20
2009,07,02,16,29,23.20
2009,07,02,16,30,23.20
2009,07,02,16,31,23.30
2009,07,02,16,32,23.30
2009,07,02,16,33,23.30
2009,07,02,16,34,23.30
2009,07,02,16,35,23.30
2009,07,02,16,36,23.30
2009,07,02,16,37,23.30
2009,07,02,16,38,23.30
2009,07,02,16,39,23.20
2009,07,02,16,40,23.20
2009,07,02,16,41,23.30
2009,07,02,16,42,23.30
2009,07,02,16,43,23.30
2009,07,02,16,44,23.20
2009,07,02,16,45,23.20
2009,07,02,16,46,23.20
2009,07,02,16,47,23.20
2009,07,02,16,48,23.10
2009,07,02,16,49,23.00
2009,07,02,16,50,22.90
2009,07,02,16,51,22.90
2009,07,02,16,52,22.80
2009,07,02,16,53,22.70
2009,07,02,16,54,22.70
2009,07,02,16,55,22.70
2009,07,02,16,56,22.80
2009,07,02,16,57,22.90
2009,07,02,16,58,22.90
2009,07,02,16,59,22.80
2009,07,02,17,00,22.70
2009,07,02,17,01,22.60
2009,07,02,17,02,22.50
2009,07,02,17,03,22.50
2009,07,02,17,04,22.50
2009,07,02,17,05,22.40
2009,07,02,17,06,22.50
2009,07,02,17,07,22.70
2009,07,02,17,08,22.80
2009,07,02,17,09,23.00
2009,07,02,17,10,23.20
2009,07,02,17,11,23.30
2009,07,02,17,12,23.30
2009,07,02,17,13,23.30
2009,07,02,17,14,23.30
2009,07,02,17,15,23.10
2009,07,02,17,16,22.90
2009,07,02,17,17,22.80
2009,07,02,17,18,22.70
2009,07,02,17,19,22.70
2009,07,02,17,20,22.60
2009,07,02,17,21,22.50
2009,07,02,17,22,22.60